TimeMST,TemperatureF,Dew PointF,Humidity,Sea Level PressureIn,VisibilityMPH,Wind Direction,Wind SpeedMPH,Gust SpeedMPH,PrecipitationIn,Events,Conditions,WindDirDegrees,DateUTC
12:15 AM,51.8,51.8,100,30.21,5.0,Calm,Calm,-,N/A,,Overcast,0,2012-11-14 07:15:00
12:35 AM,51.8,51.8,100,30.21,5.0,Calm,Calm,-,N/A,,Overcast,0,2012-11-14 07:35:00
12:55 AM,50.0,50.0,100,30.22,5.0,Calm,Calm,-,N/A,,Overcast,0,2012-11-14 07:55:00
1:15 AM,50.0,50.0,100,30.23,5.0,Calm,Calm,-,N/A,,Overcast,0,2012-11-14 08:15:00
1:35 AM,50.0,50.0,100,30.23,7.0,Calm,Calm,-,N/A,,Light Drizzle,0,2012-11-14 08:35:00
1:55 AM,50.0,50.0,100,30.23,10.0,Calm,Calm,-,N/A,,Overcast,0,2012-11-14 08:55:00
2:15 AM,50.0,50.0,100,30.23,7.0,Calm,Calm,-,N/A,,Overcast,0,2012-11-14 09:15:00
2:35 AM,50.0,50.0,100,30.23,5.0,Calm,Calm,-,N/A,,Mostly Cloudy,0,2012-11-14 09:35:00
2:55 AM,50.0,50.0,100,30.23,5.0,Calm,Calm,-,N/A,,Mostly Cloudy,0,2012-11-14 09:55:00
3:15 AM,50.0,50.0,100,30.23,5.0,Calm,Calm,-,N/A,,Overcast,0,2012-11-14 10:15:00
3:35 AM,50.0,50.0,100,30.24,3.0,Calm,Calm,-,N/A,,Mostly Cloudy,0,2012-11-14 10:35:00
3:55 AM,50.0,50.0,100,30.23,2.5,Calm,Calm,-,N/A,,Mostly Cloudy,0,2012-11-14 10:55:00
4:15 AM,48.2,48.2,100,30.23,3.0,Calm,Calm,-,N/A,,Overcast,0,2012-11-14 11:15:00
4:35 AM,48.2,48.2,100,30.23,0.8,Calm,Calm,-,N/A,,Overcast,0,2012-11-14 11:35:00
4:55 AM,48.2,48.2,100,30.23,0.5,Calm,Calm,-,N/A,Fog,Fog,0,2012-11-14 11:55:00
5:15 AM,48.2,48.2,100,30.23,2.0,Calm,Calm,-,N/A,,Overcast,0,2012-11-14 12:15:00
5:35 AM,48.2,48.2,100,30.23,7.0,ESE,3.5,-,N/A,,Overcast,120,2012-11-14 12:35:00
5:55 AM,50.0,50.0,100,30.24,10.0,Calm,Calm,-,N/A,,Overcast,0,2012-11-14 12:55:00
6:15 AM,46.4,46.4,100,30.24,7.0,Calm,Calm,-,N/A,,Overcast,0,2012-11-14 13:15:00
6:35 AM,46.4,46.4,100,30.24,5.0,Calm,Calm,-,N/A,,Mostly Cloudy,0,2012-11-14 13:35:00
6:55 AM,44.6,44.6,100,30.25,0.5,Calm,Calm,-,N/A,Fog,Fog,0,2012-11-14 13:55:00
7:15 AM,44.6,44.6,100,30.25,0.5,Calm,Calm,-,N/A,Fog,Fog,0,2012-11-14 14:15:00
7:35 AM,46.4,46.4,100,30.26,1.0,Calm,Calm,-,N/A,,Overcast,0,2012-11-14 14:35:00
7:55 AM,46.4,46.4,100,30.26,10.0,Calm,Calm,-,N/A,,Overcast,0,2012-11-14 14:55:00
8:15 AM,46.4,46.4,100,30.27,10.0,Calm,Calm,-,N/A,,Overcast,0,2012-11-14 15:15:00
8:35 AM,46.4,46.4,100,30.27,10.0,ESE,3.5,-,N/A,,Mostly Cloudy,120,2012-11-14 15:35:00
8:55 AM,46.4,46.4,100,30.27,7.0,ESE,3.5,-,N/A,,Scattered Clouds,120,2012-11-14 15:55:00
9:15 AM,46.4,46.4,100,30.28,10.0,Calm,Calm,-,N/A,,Scattered Clouds,0,2012-11-14 16:15:00
9:35 AM,48.2,48.2,100,30.29,7.0,Calm,Calm,-,N/A,,Mostly Cloudy,0,2012-11-14 16:35:00
9:55 AM,50.0,50.0,100,30.29,10.0,Calm,Calm,-,N/A,,Overcast,0,2012-11-14 16:55:00
10:15 AM,50.0,50.0,100,30.29,10.0,Calm,Calm,-,N/A,,Overcast,0,2012-11-14 17:15:00
10:35 AM,51.8,51.8,100,30.29,10.0,Calm,Calm,-,N/A,,Mostly Cloudy,0,2012-11-14 17:35:00
10:55 AM,53.6,53.6,100,30.29,10.0,Calm,Calm,-,N/A,,Mostly Cloudy,0,2012-11-14 17:55:00
11:15 AM,53.6,53.6,100,30.29,10.0,Calm,Calm,-,N/A,,Overcast,0,2012-11-14 18:15:00
11:35 AM,55.4,55.4,100,30.29,10.0,Calm,Calm,-,N/A,,Mostly Cloudy,0,2012-11-14 18:35:00
11:55 AM,57.2,51.8,82,30.29,10.0,Calm,Calm,-,N/A,,Scattered Clouds,0,2012-11-14 18:55:00
12:15 PM,57.2,50.0,77,30.29,10.0,Calm,Calm,-,N/A,,Scattered Clouds,0,2012-11-14 19:15:00
12:35 PM,57.2,50.0,77,30.29,10.0,Calm,Calm,-,N/A,,Clear,0,2012-11-14 19:35:00
12:55 PM,57.2,50.0,77,30.28,10.0,Calm,Calm,-,N/A,,Scattered Clouds,0,2012-11-14 19:55:00
1:15 PM,59.0,50.0,72,30.28,10.0,West,3.5,-,N/A,,Scattered Clouds,280,2012-11-14 20:15:00
1:35 PM,57.2,50.0,77,30.27,10.0,NW,6.9,-,N/A,,Scattered Clouds,310,2012-11-14 20:35:00
1:55 PM,57.2,50.0,77,30.27,10.0,NW,6.9,-,N/A,,Scattered Clouds,320,2012-11-14 20:55:00
2:15 PM,57.2,48.2,72,30.27,10.0,NNW,4.6,-,N/A,,Clear,330,2012-11-14 21:15:00
2:35 PM,59.0,48.2,67,30.26,10.0,NW,5.8,-,N/A,,Clear,310,2012-11-14 21:35:00
2:55 PM,59.0,48.2,67,30.26,10.0,NW,3.5,-,N/A,,Clear,320,2012-11-14 21:55:00
3:15 PM,59.0,48.2,67,30.26,10.0,West,4.6,-,N/A,,Clear,270,2012-11-14 22:15:00
3:35 PM,59.0,50.0,72,30.25,10.0,NW,4.6,-,N/A,,Clear,310,2012-11-14 22:35:00
3:55 PM,59.0,50.0,72,30.26,10.0,NNW,3.5,-,N/A,,Clear,330,2012-11-14 22:55:00
4:15 PM,57.2,50.0,77,30.25,10.0,NW,5.8,-,N/A,,Clear,320,2012-11-14 23:15:00
4:35 PM,57.2,50.0,77,30.26,10.0,NW,4.6,-,N/A,,Clear,320,2012-11-14 23:35:00
4:55 PM,55.4,50.0,82,30.25,10.0,NW,3.5,-,N/A,,Clear,320,2012-11-14 23:55:00
5:15 PM,55.4,50.0,82,30.25,10.0,Calm,Calm,-,N/A,,Clear,0,2012-11-15 00:15:00
5:35 PM,53.6,50.0,88,30.25,10.0,Calm,Calm,-,N/A,,Clear,0,2012-11-15 00:35:00
5:55 PM,53.6,50.0,88,30.25,10.0,Calm,Calm,-,N/A,,Scattered Clouds,0,2012-11-15 00:55:00
6:15 PM,51.8,50.0,94,30.25,10.0,Calm,Calm,-,N/A,,Mostly Cloudy,0,2012-11-15 01:15:00
6:35 PM,50.0,48.2,94,30.25,10.0,Calm,Calm,-,N/A,,Scattered Clouds,0,2012-11-15 01:35:00
6:55 PM,50.0,48.2,94,30.25,10.0,Calm,Calm,-,N/A,,Clear,0,2012-11-15 01:55:00
7:35 PM,46.4,46.4,100,30.24,0.8,Calm,Calm,-,N/A,,Mostly Cloudy,0,2012-11-15 02:35:00
7:55 PM,46.4,46.4,100,30.24,0.2,Calm,Calm,-,N/A,Fog,Fog,0,2012-11-15 02:55:00
8:15 PM,48.2,48.2,100,30.24,0.5,Calm,Calm,-,N/A,Fog,Fog,0,2012-11-15 03:15:00
8:35 PM,46.4,46.4,100,30.24,0.2,Calm,Calm,-,N/A,Fog,Fog,0,2012-11-15 03:35:00
8:55 PM,44.6,44.6,100,30.24,0.2,Calm,Calm,-,N/A,Fog,Fog,0,2012-11-15 03:55:00
9:15 PM,44.6,44.6,100,30.24,0.8,Calm,Calm,-,N/A,,Overcast,0,2012-11-15 04:15:00
9:35 PM,42.8,42.8,100,30.24,0.8,SSE,5.8,-,N/A,,Mostly Cloudy,150,2012-11-15 04:35:00
9:55 PM,42.8,42.8,100,30.24,0.5,SE,3.5,-,N/A,Fog,Fog,130,2012-11-15 04:55:00
10:15 PM,42.8,42.8,100,30.24,0.5,Calm,Calm,-,N/A,Fog,Fog,0,2012-11-15 05:15:00
10:35 PM,42.8,42.8,100,30.24,1.0,SE,3.5,-,N/A,,Overcast,140,2012-11-15 05:35:00
10:55 PM,42.8,42.8,100,30.23,7.0,Calm,Calm,-,N/A,,Mostly Cloudy,0,2012-11-15 05:55:00
11:15 PM,41.0,41.0,100,30.23,2.0,Calm,Calm,-,N/A,,Scattered Clouds,0,2012-11-15 06:15:00
11:35 PM,41.0,41.0,100,30.22,2.0,South,4.6,-,N/A,,Clear,170,2012-11-15 06:35:00
11:55 PM,39.2,39.2,100,30.21,1.8,Calm,Calm,-,N/A,,Mist,0,2012-11-15 06:55:00